Regional Weather Roundup
Issued by NWS Charleston, SC

Current Version | Previous Version | Text Only | Print | Product List | Glossary Off
Versions: 1 2 3 4 5 6 7 8 9 10 11 12 13 14 15 16 17 18 19 20 21 22 23 24 25 26 27 28 29 30 31 32 33 34 35 36 37 38 39 40 41 42 43 44 45 46 47 48 49 50
000 ASUS42 KCHS 030026 RWRCHS REGIONAL WEATHER ROUNDUP NATIONAL WEATHER SERVICE CHARLESTON SC 700 PM EST MON MAR 02 2015 NOTE: "FAIR" INDICATES FEW OR NO CLOUDS BELOW 12,000 FEET WITH NO SIGNIFICANT WEATHER AND/OR OBSTRUCTIONS TO VISIBILITY. NOT ALL STATIONS ARE QUALITY CONTROLLED BY THE NATIONAL WEATHER SERVICE. USE DATA WITH CAUTION...ESPECIALLY DEWPOINT OBSERVATIONS. SCZ027-030-031-034>040-042>050-030100- ...SOUTHEAST SOUTH CAROLINA... CITY SKY/WX TMP DP RH WIND PRES REMARKS N CHARLESTON CLOUDY 69 58 67 CALM 30.22R 6HR MIN TEMP: 65; 6HR MAX TEMP: 74; WATERFRONT PRK N/A 63 N/A N/A SW6 N/A MOUNT PLEASANT CLOUDY 57 54 88 NE6 30.24R PINOPOLIS N/A 70 57 64 CALM 30.14R MONCKS CORNER CLOUDY 66 57 72 NE12 30.23R SUMMERVILLE CLOUDY 68 59 73 E3 30.23R BEAUFORT MCAS MOCLDY 59 55 87 S5 30.21R 6HR MIN TEMP: 59; 6HR MAX TEMP: 73; BEAUFORT ARPT FAIR 57 55 94 CALM 30.22R HILTON HEAD IS PTCLDY 55 54 94 CALM 30.23R WALTERBORO CLOUDY 66 63 88 CALM 30.22R ALLENDALE FAIR 64 59 82 CALM 30.20R ...SOUTHERN MIDLANDS AND PEE DEE... CITY SKY/WX TMP DP RH WIND PRES REMARKS GEORGETOWN NOT AVBL KINGSTREE NOT AVBL ORANGEBURG CLOUDY 67 55 65 NE13 30.22R 6HR MIN TEMP: 67; 6HR MAX TEMP: 77; BARNWELL CLOUDY 66 61 82 CALM 30.21R AIKEN CLOUDY 64 55 72 CALM 30.25R MANNING CLOUDY 63 46 55 E3 30.25R COLUMBIA MOCLDY 65 52 62 E5 30.22R 6HR MIN TEMP: 65; 6HR MAX TEMP: 73; SUMTER CLEAR 59 53 81 E5 30.22R 6HR MIN TEMP: 59; 6HR MAX TEMP: 71; FLORENCE CLEAR 56 49 77 E5 30.26R 6HR MIN TEMP: 55; 6HR MAX TEMP: 65; MYRTLE BEACH PTCLDY 54 48 82 SE7 N/A N MYRTLE BEACH PTCLDY 52 49 89 CALM 30.26R 6HR MIN TEMP: 52; 6HR MAX TEMP: 64; $$ GAZ063-065-086>088-099>101-113>116-118-119-134>141-150-030100- ...SOUTHEAST GEORGIA... CITY SKY/WX TMP DP RH WIND PRES REMARKS SAVANNAH ARPT MOCLDY 66 57 72 W5 30.21R 6HR MIN TEMP: 65; 6HR MAX TEMP: 77; HUNTER AAF PTCLDY 69 60 73 SW5 30.19R 6HR MIN TEMP: 69; 6HR MAX TEMP: 77; FORT STEWART PTCLDY 66 60 80 CALM 30.20R 6HR MIN TEMP: 66; 6HR MAX TEMP: 76; STATESBORO CLEAR 61 61 100 CALM 30.22R SYLVANIA PTCLDY 63 61 92 CALM 30.22R CLAXTON FAIR 61 61 100 CALM 30.22R ...CSRA...CENTRAL AND FAR SOUTHEAST GEORGIA... CITY SKY/WX TMP DP RH WIND PRES REMARKS THOMSON PTCLDY 64 61 88 CALM 30.26R AUGUSTA-BUSH PTCLDY 67 55 65 W6 30.20R 6HR MIN TEMP: 67; 6HR MAX TEMP: 76; AUGUSTA-DANIEL PTCLDY 70 56 61 CALM 30.21R SWAINSBORO NOT AVBL VIDALIA PTCLDY 68 61 77 CALM 30.23R EASTMAN MOCLDY 67 62 84 SW3 30.25S HAZLEHURST FAIR 65 64 96 CALM 30.23R ALMA PTCLDY 61 60 97 CALM 30.23S 6HR MIN TEMP: 61; 6HR MAX TEMP: 70; WAYCROSS PTCLDY 66 64 94 CALM 30.24R JESUP FAIR 64 63 94 CALM 30.24R BAXLEY FAIR 64 61 88 CALM 30.23R BRUNSWICK CLEAR 64 63 94 CALM 30.24R SAINT SIMONS CLEAR 57 54 89 CALM 30.23R 6HR MIN TEMP: 57; 6HR MAX TEMP: 73; $$ SCZ027-028-034-036>038-045-046-048>050-GAZ119-141-030100- ...LAKE AND SUPPLEMENTAL COASTAL OBSERVATIONS... STATION/POSITION TIME TEMP WIND PRES WAVE SWELL AIR SEA DIR/SP/G HT/PER HT/PER/DIR (UTC) (F) (DEG/KT/KT) (MB) (FT/S) (FT/S/D) UPR LAKE MARION NOT AVBL WINYAH BAY 2345 51 60/ 2 1023.0R LAKE MURRAY 2300 63 40/ 4/ 5 1022.0S ACE BASIN NERRS NOT AVBL FORT PULASKI 0000 49 190/ 6/ 7 N/A SAPELO ISLAND 0000 60 140/ 3 1023.0S $$ ANZ835-935-AMZ111-154-330-350-352-354-370-450-454-472-030100- ...C-MAN AND BUOY OBSERVATIONS... STATION/POSITION TIME TEMP WIND PRES WAVE SWELL AIR SEA DIR/SP/G HT/PER HT/PER/DIR (UTC) (F) (DEG/KT/KT) (MB) (FT/S) (FT/S/D) BUOY 41004 2350 62 68 340/ 4/ 6 1023.4R 3/10 3/10 BUOY 41008 2350 56 55 170/ 6/ 6 1023.3R 3/10 2/100/10 FOLLY BEACH CMAN 0000 51 230/ 7/ 8 1023.9R CAPERS NEARSHORE NOT AVBL FRIPP NEARSHORE 2300 53 180/ 8/ 10 1022.1R STATION/POSITION TIME TEMP WIND PRES WAVE SWELL AIR SEA DIR/SP/G HT/PER HT/PER/DIR (UTC) (F) (DEG/KT/KT) (MB) (FT/S) (FT/S/D) 5E ST. MARYS GA 2321 54 N/A 3/ 9 FRYING PAN BUOY 2350 58 62 60/ 12/ 14 1024.9R 3/ 9 2/140/ 9 BUOY 41025 NOT AVBL CAPE LOOKOUT NC 0000 45 40/ 26/ 29 1026.1R BUOY 41002 2350 72 73 320/ 17/ 21 1022.6R 5/ 9 3/100/ 9 BUOY 41010 2320 74 76 310/ 4/ 6 1023.7R ST AUGUSTINE FL 0000 55 360/ 6/ 6 1024.5R $$

USA.gov is the U.S. government's official web portal to all federal, state and local government web resources and services.